This demonstration page uses our WeatherBlox Daily Observations layout. Learn more.

Left ArrowRight Arrow

39.51506, -84.39828

Hourly Observations for May 5, 2016

Temp ( °F °C ) Dew Point ( °F °C ) Humidity (%) Winds ( mph kmh ) Pressure ( in mb ) Visibility ( mi km ) Precip ( " mm )
12:15 am 00:15 Cloudy 49 9.6 34 1.2 56 56 undefined N/A 29.80 1009 10 16 N/A
12:35 am 00:35 Cloudy 47 8.2 33 0.3 58 58 undefined N/A 29.80 1009 10 16 N/A
12:55 am 00:55 Cloudy 47 8.2 33 0.7 60 60 undefined N/A 29.80 1009 10 16 N/A
1:15 am 01:15 Cloudy with Light Snow 44 6.8 35 1.7 70 70 WNW 8 13 29.80 1009 7 11 N/A
1:35 am 01:35 Cloudy 43 6.1 35 1.6 73 73 NW 8 13 29.77 1008 10 16 N/A
1:55 am 01:55 Cloudy 43 6.1 36 2 75 75 undefined N/A 29.80 1009 10 16 N/A
2:15 am 02:15 Cloudy 43 6.1 36 2 75 75 undefined N/A 29.77 1008 10 16 N/A
2:35 am 02:35 Cloudy 43 6.1 36 2 75 75 N 5 7 29.77 1008 10 16 N/A
2:55 am 02:55 Cloudy 43 6 35 1.9 75 75 NNE 3 6 29.77 1008 10 16 N/A
3:15 am 03:15 Cloudy 42 5.8 36 2 77 77 N 3 6 29.77 1008 10 16 N/A
3:35 am 03:35 Cloudy 42 5.5 35 1.9 78 78 N N/A 29.77 1008 10 16 N/A
3:55 am 03:55 Mostly Cloudy 42 5.5 36 2 78 78 N N/A 29.77 1008 10 16 N/A
4:15 am 04:15 Cloudy 42 5.5 36 2 78 78 N 3 6 29.77 1008 10 16 N/A
4:35 am 04:35 Cloudy 42 5.5 36 2 78 78 N N/A 29.77 1008 10 16 N/A
4:55 am 04:55 Partly Cloudy 42 5.4 36 2 79 79 undefined N/A 29.77 1008 10 16 N/A
5:15 am 05:15 Clear 40 4.7 35 1.4 79 79 N 3 6 29.77 1008 10 16 N/A
5:35 am 05:35 Clear 40 4.7 35 1.4 79 79 N N/A 29.80 1009 10 16 N/A
5:55 am 05:55 Clear 40 4.6 34 1.3 79 79 N 5 7 29.80 1009 10 16 N/A
6:15 am 06:15 Mostly Cloudy 40 4.7 35 1.5 80 80 N 5 7 29.80 1009 10 16 N/A
6:35 am 06:35 Partly Cloudy 39 4.1 33 0.7 79 79 undefined N/A 29.80 1009 10 16 N/A
6:55 am 06:55 Partly Cloudy 40 4.7 34 1.1 78 78 N 6 9 29.83 1010 10 16 N/A
7:15 am 07:15 Partly Cloudy 40 4.7 34 1.1 78 78 N N/A 29.83 1010 10 16 N/A
7:35 am 07:35 Sunny 42 5.5 35 1.5 76 76 N 3 6 29.83 1010 10 16 N/A
7:55 am 07:55 Sunny 42 5.6 35 1.4 75 75 N 3 6 29.83 1010 10 16 N/A
8:15 am 08:15 Sunny 43 6.1 35 1.6 73 73 N 5 7 29.83 1010 10 16 N/A
8:35 am 08:35 Sunny 45 7.3 35 1.8 68 68 N 6 9 29.85 1011 10 16 N/A
8:55 am 08:55 Sunny 49 9.6 37 2.9 63 63 N 5 7 29.85 1011 10 16 N/A
9:15 am 09:15 Sunny 49 9.6 37 2.7 62 62 N 8 13 29.85 1011 10 16 N/A
9:35 am 09:35 Sunny 49 9.6 36 2.4 61 61 NE 6 9 29.85 1011 10 16 N/A
9:55 am 09:55 Mostly Cloudy 49 9.6 37 2.6 62 62 NNE 7 11 29.85 1011 10 16 N/A
10:15 am 10:15 Cloudy 49 9.6 36 2.2 60 60 NE 5 7 29.85 1011 10 16 N/A
10:35 am 10:35 Cloudy 49 9.6 35 1.5 57 57 NNE 7 11 29.85 1011 10 16 N/A
10:55 am 10:55 Cloudy 49 9.6 36 2 59 59 NNW 6 9 29.85 1011 10 16 N/A
11:15 am 11:15 Cloudy 49 9.6 35 1.7 58 58 NNW 8 13 29.85 1011 10 16 N/A
11:35 am 11:35 Cloudy 49 9.6 37 2.9 63 63 N 8 13 29.88 1012 10 16 N/A
11:55 am 11:55 Cloudy 49 9.6 39 4.1 69 69 NNW 5 7 29.88 1012 10 16 N/A
12:15 pm 12:15 Cloudy 49 9.6 39 4 68 68 N 6 9 29.88 1012 10 16 N/A
12:35 pm 12:35 Cloudy 49 9.6 39 4.1 69 69 NNW 8 13 29.88 1012 10 16 N/A
12:55 pm 12:55 Cloudy 49 9.6 40 4.5 71 71 NNW 9 15 29.88 1012 10 16 N/A
1:15 pm 13:15 Cloudy 49 9.6 41 4.8 72 72 N 8 13 29.88 1012 10 16 N/A
1:35 pm 13:35 Cloudy 51 10.3 42 5.4 72 72 NNW 9 15 29.88 1012 10 16 N/A
1:55 pm 13:55 Cloudy 52 11 42 5.7 70 70 N 5 7 29.88 1012 10 16 N/A
2:15 pm 14:15 Cloudy 52 11 42 5.8 71 71 NNW 6 9 29.88 1012 7 11 N/A
2:35 pm 14:35 Cloudy 55 12.5 45 7 69 69 N N/A 29.88 1012 10 16 N/A
2:55 pm 14:55 Cloudy 55 12.5 44 6.6 68 68 WNW 5 7 29.88 1012 10 16 N/A
3:15 pm 15:15 Mostly Cloudy 57 13.8 45 7 64 64 undefined N/A 29.88 1012 10 16 N/A
3:35 pm 15:35 Cloudy 59 14.8 45 7.4 61 61 undefined N/A 29.85 1011 10 16 N/A
3:55 pm 15:55 Cloudy 57 13.8 44 6.5 62 62 undefined N/A 29.88 1012 10 16 N/A
4:15 pm 16:15 Partly Cloudy 60 15.4 44 6.9 57 57 undefined N/A 29.83 1010 10 16 N/A
4:35 pm 16:35 Mostly Cloudy 60 15.6 45 7.1 57 57 NW 8 13 29.83 1010 10 16 N/A
4:55 pm 16:55 Cloudy with Light Rain 57 13.8 47 8.4 70 70 NW 3 6 29.83 1010 5 8 N/A
5:15 pm 17:15 Cloudy 57 13.8 47 8.5 71 71 undefined N/A 29.83 1010 10 16 N/A
5:35 pm 17:35 Partly Cloudy 60 15.3 49 9.5 69 69 undefined N/A 29.83 1010 10 16 N/A
5:55 pm 17:55 Sunny 61 16 47 8.6 62 62 undefined N/A 29.83 1010 10 16 N/A
6:15 pm 18:15 Sunny 63 17.1 44 6.6 50 50 undefined N/A 29.83 1010 10 16 N/A
6:35 pm 18:35 Partly Cloudy 63 17.4 38 3.3 39 39 undefined N/A 29.83 1010 10 16 N/A
6:55 pm 18:55 Partly Cloudy 63 17.1 35 1.8 36 36 undefined N/A 29.83 1010 10 16 N/A
7:15 pm 19:15 Cloudy 62 16.6 34 1.1 35 35 N 12 19 29.83 1010 10 16 N/A
7:35 pm 19:35 Cloudy 62 16.6 37 2.5 39 39 N 6 9 29.85 1011 10 16 N/A
7:55 pm 19:55 Cloudy 61 16 35 1.5 38 38 undefined N/A 29.85 1011 10 16 N/A
8:15 pm 20:15 Cloudy 60 15.3 39 4 47 47 undefined N/A 29.85 1011 10 16 N/A
8:35 pm 20:35 Mostly Cloudy 57 13.8 39 3.8 51 51 N 3 6 29.88 1012 10 16 N/A
8:55 pm 20:55 Mostly Cloudy 57 13.8 42 5.3 57 57 undefined N/A 29.88 1012 10 16 N/A
9:15 pm 21:15 Cloudy 56 13.5 42 5.7 60 60 N N/A 29.88 1012 10 16 N/A
9:35 pm 21:35 Mostly Cloudy 55 12.5 41 5.2 61 61 undefined N/A 29.88 1012 10 16 N/A
9:55 pm 21:55 Partly Cloudy 55 12.5 40 4.5 58 58 undefined N/A 29.91 1013 10 16 N/A
10:15 pm 22:15 Mostly Cloudy 55 12.5 45 7 69 69 undefined N/A 29.91 1013 10 16 N/A
10:35 pm 22:35 Mostly Cloudy 55 12.5 42 5.8 64 64 N N/A 29.91 1013 10 16 N/A
10:55 pm 22:55 Mostly Cloudy 53 11.9 43 6.3 69 69 N N/A 29.91 1013 10 16 N/A
11:15 pm 23:15 Partly Cloudy 52 11 42 5.8 71 71 N N/A 29.91 1013 10 16 N/A
11:35 pm 23:35 Partly Cloudy 50 10.2 42 5.5 73 73 NE 3 6 29.91 1013 10 16 N/A
11:55 pm 23:55 Partly Cloudy 49 9.6 41 5.1 74 74 NNE 3 6 29.91 1013 10 16 N/A

Powered by AerisWeather